Temperature
24 24 24 25 26 27 29 31 32 32 32 32 31 31 30 29 27 26 25 24 22 22 22 22 21 21 20 20 20 20 19 19 19 19 19 19 19 18 18 18 18 18 18 18 18 18 18 18 18
24 24 26 27 27 28 30 32 32 32 32 31 31 31 30 28 27 26 25 24 22 22 22 22 21 21 20 20 20 19 19 19 19 19 19 18 18 18 18 18 18 18 18 18 18 18 18 18 18
25 25 27 28 28 30 31 32 32 32 32 31 31 30 29 28 27 26 24 23 22 21 21 22 21 21 20 20 20 19 19 19 19 19 18 18 18 18 18 18 18 18 18 18 18 18 18 18 18
25 28 28 29 30 32 33 33 33 32 32 31 30 29 28 27 27 25 24 23 22 21 21 22 21 21 20 20 19 19 19 19 19 19 18 18 18 18 18 18 18 18 18 18 18 18 18 18 18
27 28 28 29 31 33 34 34 33 32 32 31 30 28 27 26 26 25 24 23 22 21 21 22 21 20 20 20 19 19 19 19 19 18 18 18 18 18 18 18 18 18 18 18 18 18 18 18 18
29 29 28 29 32 34 34 34 33 31 31 31 30 29 26 26 25 25 24 23 22 21 21 22 21 20 20 20 19 19 19 19 18 18 18 18 18 18 18 18 18 18 18 18 18 18 18 18 18
30 30 30 31 32 33 34 34 33 32 31 31 31 28 26 26 25 25 24 23 23 21 21 21 21 20 20 20 19 19 19 19 18 18 18 18 18 18 18 18 18 18 18 18 18 18 18 18 18
31 31 31 32 33 33 34 34 33 32 32 31 30 28 26 25 25 24 24 23 22 21 20 21 20 20 20 19 19 19 19 19 18 18 18 18 18 18 18 18 18 18 18 18 18 18 18 18 18
31 31 31 32 33 33 34 34 33 32 31 30 29 28 27 25 25 24 24 23 22 21 20 20 19 19 19 19 19 19 19 19 18 18 18 18 18 18 18 18 18 18 18 18 18 18 18 18 18
32 31 32 34 34 34 34 34 33 32 30 29 28 27 25 25 24 24 23 22 22 21 21 20 20 19 19 18 19 19 19 19 18 18 18 18 18 17 18 18 18 18 18 18 18 18 18 18 18
33 33 33 34 34 34 34 34 33 32 30 29 28 26 25 24 24 24 23 23 22 21 21 20 20 20 19 19 19 18 18 18 18 18 18 18 18 18 18 18 18 18 18 18 18 18 17 17 17
33 34 34 34 34 34 34 34 33 32 31 30 28 27 25 24 24 23 23 23 22 21 21 20 20 20 19 19 19 19 18 19 18 18 18 18 18 18 18 18 18 18 18 18 18 18 17 17 17
33 34 34 34 34 34 33 33 33 32 31 30 29 27 26 25 24 23 23 22 22 21 21 20 20 20 19 19 19 19 19 19 18 18 18 18 18 18 18 18 18 18 18 18 18 18 18 18 18
34 34 34 34 34 34 34 34 33 32 31 30 29 27 26 25 24 23 22 22 21 21 20 20 19 19 19 19 19 19 19 19 19 19 18 18 18 18 18 18 18 18 18 18 18 18 18 18 18
33 33 33 34 34 34 34 32 32 32 31 30 29 28 26 25 24 23 22 22 21 20 20 20 19 19 19 19 19 19 19 19 19 19 18 18 18 18 18 18 18 18 18 18 18 18 18 18 18
33 32 32 33 34 34 33 31 32 32 31 30 29 27 26 25 24 23 22 21 21 20 19 19 19 19 19 19 19 19 19 19 19 19 18 19 18 18 18 18 18 18 18 18 18 18 18 18 18
32 32 32 33 35 34 33 32 32 32 31 30 29 28 26 24 24 23 22 21 20 20 19 19 19 19 19 19 19 19 19 19 19 19 18 19 18 18 18 18 18 18 18 18 18 18 18 18 18
32 33 33 33 34 34 33 32 33 32 32 31 29 28 26 25 24 23 21 21 20 19 19 19 19 19 19 18 18 18 19 19 19 19 18 18 18 18 18 18 18 18 18 18 18 18 18 18 18
33 32 32 33 34 33 33 32 33 33 32 30 29 28 26 25 24 22 21 20 20 19 19 19 18 18 18 18 18 18 18 18 18 18 18 18 18 18 18 18 18 18 18 18 18 18 18 18 18
32 32 32 33 34 33 32 32 33 33 32 31 30 28 27 25 24 22 21 20 20 19 19 18 18 18 18 18 18 18 18 18 18 19 18 18 18 18 18 18 18 18 18 18 18 18 18 18 18
32 32 32 32 33 33 32 31 32 32 32 31 30 29 28 26 24 22 21 20 20 19 19 18 18 18 18 18 18 18 18 18 18 18 18 18 18 18 18 18 18 18 18 18 18 18 18 18 18
31 33 33 32 32 31 32 30 31 31 30 31 30 29 28 26 24 22 21 20 20 19 19 19 18 18 18 18 18 18 18 18 18 18 18 18 18 18 18 18 18 18 18 18 18 18 18 18 18
32 33 33 32 31 31 31 31 31 31 30 30 30 29 28 26 24 23 22 21 20 20 19 19 18 18 18 18 18 18 18 18 18 18 18 18 18 18 18 18 18 18 18 18 18 18 18 18 18
33 32 32 31 31 29 31 31 30 31 31 31 31 29 28 26 25 23 22 21 20 20 19 19 18 18 18 18 18 18 18 18 18 18 18 18 18 18 18 18 18 18 18 18 18 18 18 18 18
32 30 29 29 29 29 31 31 31 32 32 32 31 29 28 27 25 23 22 21 20 20 19 18 18 18 18 18 18 18 18 18 18 18 18 18 18 18 18 18 18 18 18 18 18 18 17 18 18
31 31 29 28 28 28 29 30 31 32 32 32 31 29 28 27 25 24 22 21 20 20 19 18 18 18 18 18 18 18 18 18 18 18 18 18 18 18 18 18 17 17 18 17 17 17 17 17 17
31 31 32 30 29 29 29 30 31 31 31 31 31 29 28 27 25 24 22 21 20 20 19 19 18 18 18 18 18 18 18 18 18 18 18 18 18 18 18 18 17 17 17 17 17 17 17 17 17
32 32 31 30 28 28 29 29 29 29 29 30 30 29 28 26 25 24 23 21 20 20 19 19 18 18 18 18 18 18 18 18 18 18 18 18 18 18 17 17 17 17 17 17 17 17 17 17 17
31 31 30 30 30 29 28 28 30 29 29 29 30 29 28 27 26 24 23 22 21 20 19 19 18 18 18 18 18 18 18 18 18 17 17 17 17 17 17 17 17 17 17 17 17 17 16 16 16
32 31 31 29 29 29 29 29 31 30 30 30 30 29 28 27 26 24 23 22 21 20 20 19 18 18 18 18 18 17 18 18 17 17 17 17 17 17 17 17 17 16 16 16 16 16 16 16 16
Wind_Speed
10 13 11 7 4 2 8 12 14 15 14 13 12 13 18 16 11 9 14 20 24 22 20 19 18 18 17 17 16 16 16 15 14 13 13 12 12 12 12 12 12 12 12 12 13 13 13 13 14
11 14 8 4 3 2 9 11 13 13 11 10 11 15 17 16 14 13 16 21 24 22 20 19 19 18 18 17 16 16 16 15 14 13 12 12 12 12 12 12 12 12 12 12 13 13 13 13 13
12 14 6 4 3 3 10 11 11 10 10 9 10 14 14 12 13 12 17 22 22 20 20 21 20 19 18 17 17 16 16 15 14 13 12 12 12 12 12 12 12 12 12 13 13 14 13 13 12
8 5 3 6 3 8 10 8 8 8 8 9 10 10 10 9 10 15 18 21 22 21 21 21 20 19 18 17 17 16 15 14 14 13 12 11 11 12 12 12 12 12 13 13 14 14 13 12 11
8 3 4 6 3 8 9 8 8 8 7 9 11 13 10 10 15 19 17 20 21 21 21 21 20 19 18 17 16 16 15 14 13 12 12 11 12 12 12 12 12 12 13 13 13 13 13 11 10
5 4 6 5 3 8 8 8 9 9 6 5 9 12 10 11 15 16 17 17 18 21 21 21 20 19 18 17 16 15 14 13 13 12 12 12 12 11 12 12 12 12 12 13 13 12 12 11 9
9 7 8 6 4 6 8 8 8 8 4 5 8 10 8 12 13 15 16 17 17 21 20 18 19 18 17 16 16 15 14 13 13 12 12 12 12 12 12 12 12 11 12 12 12 11 11 9 8
9 7 9 6 4 6 7 7 7 7 5 6 6 8 10 13 14 14 14 15 16 19 19 16 18 17 16 15 15 15 14 13 13 12 12 12 12 12 12 12 11 11 11 11 11 11 10 9 7
11 7 8 6 5 5 7 6 4 5 7 8 8 10 16 17 16 15 13 12 14 17 16 16 16 15 15 15 15 14 14 13 13 12 12 12 11 12 11 13 11 10 10 10 10 10 10 9 7
7 6 7 6 7 7 7 6 4 5 7 7 7 13 17 16 16 16 15 14 16 16 15 13 15 14 14 14 14 12 12 13 12 12 12 10 9 10 12 14 11 10 10 10 9 9 10 9 8
9 9 8 7 6 7 7 6 5 5 4 5 9 15 16 15 14 14 14 14 15 14 13 13 14 11 11 9 11 9 9 11 11 12 12 9 9 10 12 10 10 10 10 9 9 9 9 7 6
10 12 9 8 7 7 7 7 4 4 5 7 11 15 16 15 14 13 13 12 13 13 13 12 12 8 7 9 8 7 7 8 8 10 10 9 5 5 7 7 10 10 8 7 7 6 7 7 6
11 12 11 10 9 6 7 7 4 3 6 8 11 13 14 14 13 12 11 10 11 12 12 12 11 9 5 4 4 6 5 8 9 11 9 9 6 3 5 5 6 7 8 7 4 4 4 4 4
12 12 12 12 11 9 8 7 3 3 5 7 10 11 12 13 14 12 11 10 11 11 12 11 11 9 7 5 3 2 5 6 10 10 10 8 7 5 4 3 3 4 6 6 5 5 4 2 3
12 13 14 14 10 8 7 5 2 3 6 6 9 10 12 13 13 12 12 11 11 11 11 11 11 10 8 7 6 4 4 7 6 8 10 7 8 8 5 3 3 4 6 6 4 4 5 4 4
13 13 14 12 10 6 6 5 3 5 6 6 8 9 11 11 12 12 12 10 10 10 11 11 12 12 9 7 6 3 4 4 5 9 10 8 8 9 5 3 4 6 7 5 3 3 3 3 3
15 14 13 9 7 4 6 5 4 5 5 7 8 9 11 11 11 12 13 12 11 11 11 9 9 12 11 9 6 3 3 3 5 7 8 9 9 9 5 3 4 5 4 3 4 3 2 3 3
12 10 8 6 3 3 7 6 3 3 4 6 8 10 11 12 12 13 12 12 12 11 10 10 9 10 10 8 6 3 3 3 4 5 7 9 9 9 6 4 5 4 3 2 3 4 2 1 2
15 14 12 8 5 5 8 9 6 3 4 6 8 10 11 11 12 12 13 12 12 12 11 11 11 10 9 7 7 6 5 4 4 5 8 9 8 9 5 2 4 2 2 3 4 3 3 2 2
13 13 13 10 7 6 9 12 7 5 5 6 9 11 11 12 13 13 12 12 12 12 11 11 10 11 10 8 6 5 5 4 4 4 6 9 8 8 8 4 4 4 3 3 3 3 1 3 3
13 12 12 12 10 9 11 12 8 5 5 7 8 9 10 12 14 14 13 12 12 12 12 11 10 10 10 9 6 5 4 3 3 4 5 6 8 8 5 6 3 4 4 4 4 4 3 2 2
13 12 13 12 12 11 11 9 5 6 7 8 9 10 10 10 12 13 12 11 12 12 11 10 10 10 10 9 9 10 8 7 7 5 5 5 6 7 6 6 4 3 3 5 6 6 3 3 2
13 12 12 12 12 14 14 11 4 6 7 8 9 10 11 12 13 13 12 12 11 11 11 10 10 10 10 10 10 10 8 7 6 5 6 6 5 6 7 6 5 4 3 5 3 3 3 2 3
12 12 12 12 12 14 14 11 6 4 5 7 9 10 11 12 13 12 11 11 9 10 10 10 10 10 10 10 9 9 9 7 7 7 7 7 6 6 7 7 5 5 4 4 4 3 4 2 1
12 11 9 10 10 10 9 9 4 5 5 6 9 10 10 11 12 12 11 11 10 10 9 10 11 10 10 10 9 9 7 7 8 7 7 7 6 6 7 7 6 5 4 4 4 4 3 4 3
13 14 12 9 7 6 6 7 2 5 6 7 8 10 11 11 11 11 11 10 9 9 9 10 10 10 10 10 9 8 7 6 6 7 7 7 5 5 7 7 6 5 5 6 4 4 4 3 3
16 15 16 16 15 12 7 6 6 6 6 7 10 10 10 10 10 11 11 10 9 9 9 9 9 9 10 9 8 8 8 7 6 7 6 5 5 6 7 8 8 6 6 4 5 3 4 4 4
17 14 10 11 11 12 9 7 2 6 6 5 8 10 11 10 11 12 12 11 10 9 9 9 9 8 8 8 8 8 7 6 6 6 7 7 6 6 7 7 8 7 6 5 4 3 3 4 3
14 15 12 10 10 10 9 3 2 8 8 8 8 11 11 12 12 12 11 11 10 9 9 9 9 8 7 7 7 6 6 6 5 5 5 5 5 6 6 6 6 6 5 5 4 3 4 4 3
15 15 14 10 10 11 10 5 6 7 8 9 9 11 11 11 12 12 11 11 9 9 9 8 8 8 7 7 7 6 6 5 5 5 4 4 5 6 6 5 5 5 5 5 5 4 4 4 3
Wind_Direction
258 254 246 264 272 261 68 69 67 65 61 57 51 58 63 58 65 96 123 127 124 127 132 133 130 129 127 127 127 126 123 119 117 114 111 107 104 103 101 100 97 97 99 102 105 107 108 109 111
276 270 262 262 289 50 70 70 70 68 65 65 61 65 70 68 81 106 118 122 125 129 137 135 133 131 130 129 127 126 125 122 120 118 113 109 107 106 105 103 100 100 102 103 106 108 110 110 115
269 272 278 249 244 82 71 68 75 81 77 70 64 62 67 79 93 114 125 130 128 132 133 132 136 133 133 131 130 128 127 126 124 120 116 112 110 108 106 104 102 102 103 104 106 109 110 112 118
270 277 277 285 314 66 75 73 76 75 73 76 79 77 75 72 103 121 132 133 129 131 131 136 137 135 135 134 132 130 130 129 126 124 120 116 113 110 107 105 103 102 103 105 108 111 112 114 119
261 270 278 291 317 72 72 66 64 64 73 75 85 97 94 89 106 122 136 132 134 134 132 138 139 138 137 136 134 133 133 132 130 127 123 119 116 113 110 109 106 106 107 108 111 112 115 117 120
264 254 275 294 22 66 70 70 71 57 57 80 102 103 100 116 120 132 138 134 136 131 132 137 140 140 140 139 138 137 137 136 134 130 126 124 120 117 114 113 110 111 111 111 114 115 116 118 122
265 281 289 287 41 44 51 53 67 78 73 66 85 100 120 127 130 139 138 136 137 131 133 142 144 144 144 144 143 142 141 140 137 135 133 130 127 124 120 117 116 116 117 117 118 119 121 122 126
274 294 305 302 47 46 47 48 66 74 71 61 72 112 137 135 142 139 137 135 134 131 137 147 149 147 149 147 147 146 144 143 143 143 142 140 139 136 132 127 122 123 124 125 125 126 128 130 136
274 288 304 322 18 27 30 35 45 79 73 63 54 88 130 141 144 143 140 138 135 134 142 151 148 151 154 152 151 151 150 150 151 154 155 155 159 151 150 128 131 132 133 133 135 135 139 145 153
256 277 296 330 4 3 8 5 12 57 76 94 93 106 127 144 150 153 155 157 147 145 149 150 148 155 157 152 150 160 163 161 172 165 169 179 169 155 138 135 140 144 146 148 151 152 158 168 165
264 272 294 329 355 347 341 349 24 54 87 132 143 136 142 151 156 162 163 162 153 151 150 148 148 157 153 142 158 170 165 164 180 171 172 169 159 143 137 148 152 160 165 170 162 176 186 189 176
267 287 302 311 330 324 322 328 356 40 84 117 134 141 150 157 162 168 167 163 154 155 151 149 144 145 142 151 162 164 163 166 170 162 171 159 164 155 148 155 165 172 173 170 175 186 178 172 170
262 276 289 296 292 293 301 302 319 52 87 106 127 141 153 161 164 167 163 159 154 156 152 145 141 136 134 135 166 170 164 170 161 158 178 165 160 153 139 147 164 165 160 166 174 181 147 137 143
287 291 287 279 279 278 280 294 294 124 114 125 137 147 155 161 163 162 160 161 158 154 149 143 140 139 143 152 185 169 171 164 154 160 168 178 149 134 135 143 148 150 157 157 161 156 138 158 148
279 285 282 270 260 265 287 295 295 162 139 142 143 151 153 158 161 165 164 161 157 152 151 147 149 151 160 172 189 185 182 169 160 151 157 173 147 140 148 146 169 161 147 143 157 155 162 173 159
270 262 262 257 243 248 264 265 214 190 156 147 148 153 154 155 162 163 160 157 153 152 154 162 166 160 169 178 192 194 203 167 148 149 156 167 148 150 161 165 171 158 157 165 159 183 169 159 153
256 249 256 250 213 241 269 270 190 200 166 156 154 159 159 157 165 160 160 158 155 157 161 170 163 164 172 178 186 211 195 154 147 151 154 167 163 160 175 161 140 168 173 173 176 160 158 155 162
277 287 279 275 204 241 278 281 236 215 186 161 155 159 161 165 171 161 158 160 158 163 165 170 173 168 169 172 176 200 203 175 163 153 154 163 172 164 182 169 157 187 172 158 111 122 118 123 177
287 302 302 300 300 291 286 285 267 224 191 153 159 159 165 169 163 156 158 165 165 167 172 175 179 173 169 171 174 183 194 192 183 168 159 167 180 164 185 173 153 200 163 156 151 149 156 189 183
274 280 283 284 281 278 282 280 262 222 195 169 167 164 171 161 153 156 163 168 171 174 177 178 181 176 175 170 173 183 180 191 192 173 158 172 176 168 182 178 178 172 150 158 153 138 159 202 184
263 267 278 292 298 278 270 268 247 213 195 175 166 163 167 161 158 161 169 173 174 178 181 184 183 180 180 171 171 178 178 193 191 176 165 172 175 183 188 167 195 165 173 163 180 170 184 207 207
259 261 272 282 284 283 280 278 235 187 197 184 166 161 156 149 155 161 168 176 178 179 179 182 180 177 178 176 180 181 187 192 191 184 166 173 180 183 178 177 180 177 177 159 193 186 187 200 219
264 277 278 279 278 278 274 274 260 175 180 178 166 162 153 154 158 161 167 173 178 176 176 179 178 178 178 183 185 189 192 192 186 179 164 174 183 191 184 180 176 182 189 170 186 152 187 213 220
259 269 271 267 267 262 261 263 255 188 172 170 158 150 150 152 154 156 161 163 168 169 172 172 174 178 178 186 188 197 197 190 182 178 178 185 183 196 191 181 178 188 194 166 171 170 194 216 255
237 246 255 247 243 260 262 251 232 156 147 144 145 147 151 151 151 152 157 163 167 169 168 169 172 178 180 186 190 198 198 191 188 187 192 198 189 191 189 186 177 191 180 167 171 173 202 198 202
229 235 246 267 273 295 284 258 188 131 121 128 141 145 152 156 151 154 156 159 164 167 168 168 171 174 178 184 187 191 192 196 196 199 197 204 202 190 174 173 178 192 184 185 175 184 196 188 192
241 235 249 266 276 277 248 226 156 144 136 138 142 144 152 152 149 152 150 156 163 165 162 163 165 169 176 182 182 186 193 201 201 195 200 199 193 185 179 177 180 188 186 180 169 200 191 163 186
242 251 247 255 274 280 276 278 213 147 142 153 155 147 146 150 153 151 151 157 161 158 157 158 162 169 177 180 181 186 191 195 200 199 201 196 193 190 180 179 176 179 173 174 177 192 172 169 180
219 240 254 269 268 272 278 289 118 156 167 179 177 152 154 158 155 148 146 147 152 154 157 159 159 166 173 176 180 180 182 188 194 200 200 191 182 179 177 175 171 168 167 170 171 185 165 168 169
231 229 233 243 261 272 276 260 158 168 169 172 170 145 145 147 143 143 144 148 155 156 156 157 162 168 172 171 167 174 177 175 184 189 190 181 177 176 168 163 165 170 168 166 163 180 154 137 134
Height
1488 1487 1487 1490 1488 1487 1480 1471 1466 1468 1469 1471 1472 1473 1476 1481 1488 1500 1501 1502 1504 1506 1510 1514 1517 1520 1522 1525 1528 1530 1532 1534 1536 1537 1539 1540 1542 1543 1544 1545 1546 1547 1548 1549 1550 1551 1553 1554 1556
1489 1490 1492 1490 1490 1493 1482 1469 1469 1470 1472 1473 1474 1476 1480 1485 1490 1496 1501 1504 1506 1508 1512 1515 1518 1521 1524 1527 1529 1531 1533 1535 1537 1539 1541 1542 1543 1545 1546 1547 1548 1549 1550 1551 1552 1553 1554 1556 1557
1490 1491 1492 1485 1488 1484 1479 1468 1469 1470 1472 1474 1477 1480 1485 1490 1494 1498 1502 1505 1507 1510 1513 1516 1519 1522 1525 1528 1530 1533 1535 1537 1539 1541 1543 1544 1545 1547 1548 1549 1550 1551 1552 1553 1554 1555 1556 1558 1559
1493 1492 1491 1485 1481 1468 1466 1466 1468 1471 1473 1475 1478 1484 1490 1493 1495 1499 1503 1506 1508 1512 1514 1517 1520 1523 1526 1529 1532 1534 1537 1539 1541 1542 1544 1546 1547 1548 1549 1550 1551 1552 1553 1554 1555 1557 1558 1560 1562
1494 1492 1492 1489 1475 1463 1462 1465 1468 1472 1474 1476 1480 1486 1492 1496 1497 1500 1504 1507 1509 1513 1515 1518 1521 1524 1527 1530 1533 1535 1538 1540 1542 1544 1546 1547 1549 1550 1551 1552 1553 1554 1555 1556 1557 1559 1560 1562 1563
1493 1489 1494 1492 1473 1463 1462 1466 1470 1475 1476 1477 1481 1486 1494 1497 1498 1501 1505 1508 1511 1513 1515 1519 1522 1526 1528 1531 1534 1537 1539 1541 1543 1545 1547 1549 1550 1551 1553 1554 1555 1556 1557 1558 1559 1561 1562 1564 1565
1491 1486 1488 1482 1473 1469 1464 1466 1469 1473 1476 1478 1480 1487 1494 1497 1499 1502 1506 1508 1512 1514 1516 1520 1523 1526 1529 1532 1535 1538 1540 1543 1545 1547 1548 1550 1552 1553 1554 1556 1557 1558 1559 1560 1561 1562 1564 1565 1567
1487 1483 1485 1476 1472 1471 1465 1467 1470 1473 1476 1479 1481 1485 1493 1497 1500 1503 1506 1509 1512 1515 1518 1521 1524 1527 1530 1533 1536 1539 1541 1544 1546 1548 1550 1551 1553 1554 1556 1557 1559 1560 1561 1562 1563 1564 1566 1567 1569
1485 1486 1487 1476 1471 1469 1466 1468 1470 1473 1476 1480 1482 1486 1490 1495 1499 1503 1506 1510 1513 1516 1519 1522 1525 1528 1531 1534 1537 1540 1542 1544 1547 1549 1551 1552 1554 1556 1557 1559 1560 1561 1563 1564 1565 1566 1568 1569 1571
1481 1486 1481 1469 1466 1467 1467 1468 1469 1473 1478 1483 1486 1489 1491 1495 1499 1502 1505 1509 1512 1516 1520 1523 1526 1529 1533 1536 1537 1540 1543 1545 1547 1550 1552 1554 1556 1557 1559 1560 1561 1563 1564 1566 1567 1568 1569 1571 1573
1477 1477 1472 1468 1468 1469 1469 1469 1470 1473 1479 1483 1485 1489 1492 1496 1499 1502 1505 1509 1512 1516 1519 1524 1527 1530 1534 1536 1538 1541 1544 1546 1548 1551 1553 1555 1557 1558 1560 1561 1562 1564 1565 1567 1568 1569 1570 1572 1574
1476 1473 1471 1470 1470 1470 1470 1469 1470 1473 1477 1480 1484 1488 1491 1495 1499 1501 1505 1509 1512 1516 1519 1523 1526 1529 1533 1536 1539 1542 1545 1546 1549 1551 1554 1556 1558 1559 1561 1562 1563 1564 1566 1568 1569 1570 1571 1573 1575
1474 1473 1471 1470 1470 1470 1470 1470 1470 1473 1477 1481 1485 1488 1492 1495 1498 1502 1505 1508 1511 1515 1518 1522 1525 1529 1532 1536 1540 1543 1545 1547 1549 1551 1554 1556 1558 1560 1561 1563 1564 1565 1567 1568 1570 1571 1572 1574 1575
1474 1472 1471 1470 1468 1468 1468 1468 1470 1473 1477 1480 1484 1488 1492 1495 1498 1501 1505 1507 1510 1514 1517 1520 1524 1527 1531 1535 1539 1542 1544 1547 1549 1551 1553 1556 1558 1560 1562 1563 1564 1566 1567 1569 1570 1571 1573 1574 1575
1476 1474 1472 1467 1466 1465 1467 1471 1471 1473 1476 1479 1483 1488 1491 1495 1498 1500 1504 1507 1509 1512 1516 1519 1523 1526 1530 1534 1538 1541 1544 1547 1549 1551 1553 1556 1558 1559 1561 1563 1564 1566 1567 1569 1570 1572 1573 1574 1576
1474 1475 1476 1465 1462 1463 1469 1478 1471 1472 1474 1477 1482 1487 1491 1494 1497 1500 1503 1505 1508 1511 1514 1518 1522 1525 1528 1532 1536 1540 1543 1546 1549 1551 1552 1555 1557 1559 1561 1563 1564 1566 1567 1569 1570 1572 1573 1574 1576
1473 1476 1472 1463 1457 1460 1465 1471 1468 1469 1471 1475 1480 1485 1489 1493 1496 1499 1501 1504 1507 1510 1513 1516 1520 1523 1526 1530 1534 1538 1542 1544 1547 1550 1552 1554 1556 1558 1560 1562 1564 1565 1567 1569 1570 1571 1573 1574 1575
1475 1469 1466 1463 1456 1459 1464 1466 1464 1467 1469 1473 1477 1483 1488 1492 1495 1497 1500 1503 1506 1509 1512 1515 1518 1521 1524 1528 1532 1536 1539 1543 1546 1548 1551 1553 1555 1557 1559 1561 1563 1565 1567 1568 1569 1570 1572 1573 1574
1468 1469 1469 1462 1455 1461 1465 1465 1462 1463 1466 1471 1477 1481 1485 1490 1494 1497 1499 1502 1505 1508 1510 1513 1516 1519 1522 1526 1529 1533 1537 1540 1544 1547 1549 1551 1554 1556 1558 1560 1561 1564 1565 1567 1568 1569 1571 1572 1574
1469 1473 1470 1461 1455 1461 1465 1464 1459 1461 1464 1468 1473 1478 1483 1488 1492 1495 1498 1501 1504 1506 1509 1511 1514 1517 1520 1524 1527 1532 1536 1539 1542 1545 1547 1550 1552 1555 1557 1559 1560 1562 1564 1566 1567 1568 1570 1571 1573
1471 1472 1469 1467 1460 1458 1464 1467 1460 1459 1462 1466 1470 1475 1480 1485 1490 1494 1497 1500 1502 1504 1506 1509 1511 1515 1518 1522 1525 1529 1533 1536 1540 1543 1545 1548 1550 1553 1556 1557 1559 1561 1563 1564 1565 1567 1569 1570 1572
1473 1463 1463 1465 1470 1471 1466 1479 1465 1458 1463 1464 1468 1473 1478 1483 1488 1492 1496 1498 1500 1503 1505 1508 1510 1512 1516 1519 1522 1526 1529 1532 1536 1540 1542 1545 1548 1551 1553 1555 1557 1559 1561 1562 1564 1565 1567 1569 1570
1465 1459 1461 1464 1469 1474 1467 1474 1467 1457 1464 1463 1465 1470 1475 1481 1486 1490 1494 1496 1499 1502 1503 1505 1507 1510 1513 1516 1520 1524 1527 1531 1534 1537 1540 1543 1545 1548 1551 1553 1555 1557 1559 1560 1562 1564 1566 1567 1569
1460 1463 1464 1465 1470 1484 1471 1473 1473 1459 1460 1460 1462 1468 1474 1479 1484 1489 1492 1495 1498 1500 1502 1503 1505 1508 1511 1514 1518 1521 1525 1528 1532 1534 1537 1540 1543 1545 1548 1550 1552 1555 1557 1558 1560 1562 1564 1565 1567
1461 1474 1487 1488 1487 1484 1463 1468 1465 1452 1451 1455 1460 1466 1472 1478 1482 1487 1491 1493 1496 1498 1500 1502 1503 1506 1509 1512 1515 1519 1523 1526 1529 1532 1534 1537 1540 1542 1545 1547 1549 1552 1554 1556 1558 1559 1562 1563 1565
1461 1468 1488 1496 1495 1487 1472 1471 1458 1447 1450 1455 1460 1465 1472 1477 1481 1485 1489 1492 1495 1497 1499 1500 1502 1504 1507 1510 1513 1517 1520 1523 1526 1529 1531 1534 1537 1539 1542 1544 1546 1549 1551 1554 1556 1558 1559 1561 1562
1461 1462 1458 1470 1474 1481 1473 1461 1453 1450 1452 1455 1459 1465 1470 1475 1479 1484 1488 1492 1494 1497 1498 1499 1501 1503 1506 1509 1512 1515 1518 1521 1523 1526 1529 1531 1534 1536 1539 1541 1543 1546 1548 1551 1553 1555 1557 1559 1560
1452 1453 1459 1470 1485 1489 1477 1469 1466 1459 1457 1457 1459 1464 1470 1475 1479 1484 1487 1490 1493 1496 1498 1499 1500 1502 1505 1508 1510 1513 1515 1518 1521 1523 1526 1528 1531 1533 1536 1538 1541 1543 1546 1548 1551 1553 1554 1556 1558
1454 1458 1459 1462 1464 1480 1488 1480 1453 1456 1456 1458 1459 1463 1468 1473 1477 1482 1487 1490 1493 1495 1498 1499 1501 1503 1505 1507 1509 1511 1514 1516 1518 1520 1522 1525 1527 1530 1533 1535 1538 1540 1543 1545 1548 1550 1552 1554 1556
1443 1450 1456 1472 1473 1467 1473 1472 1447 1449 1451 1455 1458 1462 1467 1472 1476 1481 1486 1489 1493 1495 1497 1499 1501 1503 1504 1506 1508 1510 1512 1514 1516 1518 1520 1522 1524 1527 1529 1532 1535 1538 1540 1543 1545 1547 1549 1551 1553